Location: ??????
(36.0418°N, 43.6351°E)
Time: 02:58:58
(UTC+00:00)

Cosmos 1805 Rocket - Pass Details

Date: 07 March 2021
Orbit: 605 x 630 km, 82.5° (Epoch: 22 April)

Event Time Altitude Azimuth Distance (km) Brightness Sun altitude
Rises 02:19:23 0° 341° (NNW) 2,927 6.9 -14.6°
Reaches altitude 10° 02:21:48 10° 331° (NNW) 2,014 5.9 -14.1°
Maximum altitude 02:25:44 31° 270° (W) 1,104 4.3 -13.3°
Drops below altitude 10° 02:29:38 10° 208° (SSW) 1,995 5.9 -12.5°
Sets 02:32:02 0° 198° (SSW) 2,894 6.8 -12.1°
